Terminal Aerodrome Forecast
Issued by NWS

Home | Current Version | Previous Version | Text Only | Print | Product List | Glossary On
Versions: 1 2 3 4 5 6 7 8 9 10 11 12 13 14 15 16 17 18
000
FTUS44 KBMX 201400 AAA
TAFEET
TAF AMD
KEET 201419Z 2014/2112 36003KT P6SM SCT005 OVC025
     FM201700 36005KT P6SM BKN040
     FM201900 35004KT P6SM BKN060
     FM211000 01002KT 5SM BR SCT008 BKN040=

USA.gov is the U.S. government's official web portal to all federal, state and local government web resources and services.